| time (UTC) | temp F | wind direction | speed MPH | gust MPH | rain 1hr in | rain 24hr in | rain mn in | humidity % | barometer mb |
| 20260508214056 | 72 | 279 | 2.0 | 6.0 | 0.00 | 0.00 | 0.00 | 32 | 1012.8 |
| 20260508213555 | 72 | 290 | 3.0 | 6.0 | 0.00 | 0.00 | 0.00 | 34 | 1012.9 |
| 20260508213055 | 72 | 161 | 1.0 | 5.0 | 0.00 | 0.00 | 0.00 | 33 | 1012.7 |
| 20260508212555 | 73 | 186 | 1.0 | 11.0 | 0.00 | 0.00 | 0.00 | 37 | 1012.8 |
| 20260508212055 | 72 | 225 | 3.0 | 11.0 | 0.00 | 0.00 | 0.00 | 34 | 1012.8 |
| 20260508211554 | 72 | 211 | 2.0 | 5.0 | 0.00 | 0.00 | 0.00 | 37 | 1012.8 |
| 20260508211055 | 72 | 240 | 2.0 | 5.0 | 0.00 | 0.00 | 0.00 | 34 | 1012.9 |
| 20260508210556 | 72 | 290 | 1.0 | 5.0 | 0.00 | 0.00 | 0.00 | 38 | 1012.8 |
| 20260508210053 | 72 | 182 | 2.0 | 7.0 | 0.00 | 0.00 | 0.00 | 32 | 1013.0 |
| 20260508205559 | 72 | 206 | 3.0 | 8.0 | 0.00 | 0.00 | 0.00 | 34 | 1013.1 |
| 20260508205052 | 72 | 261 | 3.0 | 8.0 | 0.00 | 0.00 | 0.00 | 33 | 1012.9 |
| 20260508204552 | 72 | 195 | 4.0 | 8.0 | 0.00 | 0.00 | 0.00 | 33 | 1012.9 |
| 20260508204051 | 72 | 236 | 1.0 | 6.0 | 0.00 | 0.00 | 0.00 | 35 | 1013.0 |
| 20260508203550 | 72 | 227 | 1.0 | 5.0 | 0.00 | 0.00 | 0.00 | 36 | 1013.1 |
| 20260508203058 | 72 | 238 | 1.0 | 6.0 | 0.00 | 0.00 | 0.00 | 33 | 1013.1 |
| 20260508202549 | 72 | 215 | 2.0 | 6.0 | 0.00 | 0.00 | 0.00 | 34 | 1013.2 |
| 20260508202049 | 72 | 71 | 2.0 | 7.0 | 0.00 | 0.00 | 0.00 | 29 | 1013.3 |
| 20260508201558 | 72 | 226 | 2.0 | 8.0 | 0.00 | 0.00 | 0.00 | 35 | 1013.4 |
| 20260508201047 | 72 | 247 | 3.0 | 8.0 | 0.00 | 0.00 | 0.00 | 28 | 1013.5 |
| 20260508200547 | 72 | 241 | 3.0 | 6.0 | 0.00 | 0.00 | 0.00 | 32 | 1013.5 |
| 20260508200046 | 72 | 235 | 1.0 | 8.0 | 0.00 | 0.00 | 0.00 | 32 | 1013.6 |
| 20260508195545 | 72 | 187 | 2.0 | 8.0 | 0.00 | 0.00 | 0.00 | 36 | 1013.5 |
| 20260508195047 | 72 | 179 | 1.0 | 5.0 | 0.00 | 0.00 | 0.00 | 31 | 1013.6 |
| 20260508194544 | 72 | 182 | 3.0 | 5.0 | 0.00 | 0.00 | 0.00 | 32 | 1013.7 |
| 20260508194043 | 72 | 63 | 1.0 | 6.0 | 0.00 | 0.00 | 0.00 | 36 | 1013.7 |
| 20260508193542 | 71 | 229 | 1.0 | 6.0 | 0.00 | 0.00 | 0.00 | 34 | 1013.7 |
| 20260508193043 | 71 | 178 | 1.0 | 5.0 | 0.00 | 0.00 | 0.00 | 33 | 1013.9 |
| 20260508192542 | 71 | 172 | 2.0 | 6.0 | 0.00 | 0.00 | 0.00 | 34 | 1013.9 |
| 20260508192041 | 71 | 271 | 1.0 | 6.0 | 0.00 | 0.00 | 0.00 | 38 | 1013.9 |
| 20260508191541 | 71 | 171 | 2.0 | 5.0 | 0.00 | 0.00 | 0.00 | 31 | 1014.1 |
| 20260508191039 | 71 | 355 | 2.0 | 7.0 | 0.00 | 0.00 | 0.00 | 36 | 1014.2 |
| 20260508190538 | 71 | 264 | 2.0 | 7.0 | 0.00 | 0.00 | 0.00 | 32 | 1014.4 |
| 20260508190038 | 71 | 153 | 3.0 | 7.0 | 0.00 | 0.00 | 0.00 | 36 | 1014.7 |
| 20260508185538 | 71 | 289 | 1.0 | 7.0 | 0.00 | 0.00 | 0.00 | 36 | 1014.9 |
| 20260508185034 | 70 | 286 | 2.0 | 8.0 | 0.00 | 0.00 | 0.00 | 33 | 1014.9 |
| 20260508184534 | 70 | 283 | 2.0 | 8.0 | 0.00 | 0.00 | 0.00 | 35 | 1015.0 |
| 20260508184033 | 70 | 236 | 2.0 | 7.0 | 0.00 | 0.00 | 0.00 | 35 | 1014.9 |
| 20260508183532 | 70 | 280 | 3.0 | 7.0 | 0.00 | 0.00 | 0.00 | 37 | 1015.1 |
| 20260508183035 | 70 | 177 | 2.0 | 9.0 | 0.00 | 0.00 | 0.00 | 34 | 1015.1 |
| 20260508182531 | 70 | 178 | 1.0 | 7.0 | 0.00 | 0.00 | 0.00 | 37 | 1015.2 |
| 20260508182034 | 70 | 113 | 2.0 | 7.0 | 0.00 | 0.00 | 0.00 | 38 | 1015.3 |
| 20260508181535 | 70 | 234 | 1.0 | 5.0 | 0.00 | 0.00 | 0.00 | 37 | 1015.4 |
| 20260508181028 | 70 | 163 | 3.0 | 7.0 | 0.00 | 0.00 | 0.00 | 36 | 1015.7 |
| 20260508180528 | 69 | 323 | 1.0 | 7.0 | 0.00 | 0.00 | 0.00 | 35 | 1015.7 |
| 20260508180027 | 69 | 168 | 4.0 | 7.0 | 0.00 | 0.00 | 0.00 | 38 | 1015.8 |
| 20260508175529 | 68 | 315 | 1.0 | 7.0 | 0.00 | 0.00 | 0.00 | 34 | 1015.8 |
| 20260508175025 | 69 | 181 | 2.0 | 7.0 | 0.00 | 0.00 | 0.00 | 37 | 1015.8 |
| 20260508174529 | 68 | 173 | 2.0 | 7.0 | 0.00 | 0.00 | 0.00 | 40 | 1015.8 |
| 20260508174023 | 68 | 161 | 2.0 | 7.0 | 0.00 | 0.00 | 0.00 | 38 | 1015.6 |
| 20260508173523 | 68 | 236 | 2.0 | 6.0 | 0.00 | 0.00 | 0.00 | 39 | 1015.8 |
| 20260508173023 | 68 | 146 | 3.0 | 6.0 | 0.00 | 0.00 | 0.00 | 38 | 1016.0 |
| 20260508172520 | 67 | 40 | 2.0 | 6.0 | 0.00 | 0.00 | 0.00 | 38 | 1016.0 |
| 20260508172020 | 68 | 173 | 3.0 | 6.0 | 0.00 | 0.00 | 0.00 | 40 | 1016.2 |
| 20260508171525 | 68 | 153 | 2.0 | 7.0 | 0.00 | 0.00 | 0.00 | 43 | 1016.2 |
| 20260508171018 | 68 | 238 | 3.0 | 7.0 | 0.00 | 0.00 | 0.00 | 37 | 1016.2 |
| 20260508170520 | 67 | 277 | 2.0 | 7.0 | 0.00 | 0.00 | 0.00 | 40 | 1016.3 |
| 20260508170017 | 67 | 181 | 3.0 | 7.0 | 0.00 | 0.00 | 0.00 | 35 | 1016.4 |
| 20260508165515 | 67 | 176 | 3.0 | 7.0 | 0.00 | 0.00 | 0.00 | 38 | 1016.6 |
| 20260508165017 | 67 | 224 | 3.0 | 6.0 | 0.00 | 0.00 | 0.00 | 42 | 1016.8 |
| 20260508164513 | 67 | 267 | 1.0 | 8.0 | 0.00 | 0.00 | 0.00 | 40 | 1016.8 |
| 20260508164012 | 67 | 282 | 1.0 | 8.0 | 0.00 | 0.00 | 0.00 | 42 | 1016.9 |
| 20260508163513 | 66 | 248 | 3.0 | 9.0 | 0.00 | 0.00 | 0.00 | 43 | 1017.0 |
| 20260508163014 | 66 | 136 | 4.0 | 9.0 | 0.00 | 0.00 | 0.00 | 40 | 1017.2 |
| 20260508162509 | 66 | 281 | 2.0 | 6.0 | 0.00 | 0.00 | 0.00 | 46 | 1017.3 |
| 20260508162010 | 66 | 167 | 3.0 | 7.0 | 0.00 | 0.00 | 0.00 | 43 | 1017.3 |
| 20260508161507 | 66 | 202 | 4.0 | 7.0 | 0.00 | 0.00 | 0.00 | 42 | 1017.5 |
| 20260508161006 | 65 | 273 | 1.0 | 6.0 | 0.00 | 0.00 | 0.00 | 42 | 1017.6 |
| 20260508160504 | 65 | 183 | 1.0 | 6.0 | 0.00 | 0.00 | 0.00 | 43 | 1017.6 |
| 20260508160004 | 64 | 289 | 1.0 | 7.0 | 0.00 | 0.00 | 0.00 | 45 | 1017.6 |
| 20260508155502 | 64 | 162 | 1.0 | 7.0 | 0.00 | 0.00 | 0.00 | 45 | 1017.6 |
| 20260508155002 | 64 | 69 | 2.0 | 6.0 | 0.00 | 0.00 | 0.00 | 41 | 1017.7 |
| 20260508154605 | 64 | 206 | 2.0 | 4.0 | 0.00 | 0.00 | 0.00 | 49 | 1017.8 |
| 20260508154058 | 64 | 229 | 1.0 | 7.0 | 0.00 | 0.00 | 0.00 | 43 | 1017.8 |
| 20260508153557 | 63 | 215 | 2.0 | 7.0 | 0.00 | 0.00 | 0.00 | 43 | 1017.9 |
| 20260508153057 | 63 | 153 | 1.0 | 5.0 | 0.00 | 0.00 | 0.00 | 43 | 1018.1 |
| 20260508152554 | 63 | 176 | 0.0 | 6.0 | 0.00 | 0.00 | 0.00 | 42 | 1018.4 |
| 20260508152053 | 64 | 229 | 3.0 | 6.0 | 0.00 | 0.00 | 0.00 | 44 | 1018.4 |
| 20260508151554 | 63 | 86 | 2.0 | 6.0 | 0.00 | 0.00 | 0.00 | 46 | 1018.4 |
| 20260508151051 | 63 | 212 | 2.0 | 6.0 | 0.00 | 0.00 | 0.00 | 46 | 1018.4 |
| 20260508150550 | 63 | 198 | 1.0 | 7.0 | 0.00 | 0.00 | 0.00 | 48 | 1018.6 |
| 20260508150048 | 62 | 254 | 4.0 | 7.0 | 0.00 | 0.00 | 0.00 | 45 | 1018.6 |
| 20260508145547 | 62 | 254 | 2.0 | 7.0 | 0.00 | 0.00 | 0.00 | 46 | 1018.5 |
| 20260508145046 | 62 | 260 | 3.0 | 7.0 | 0.00 | 0.00 | 0.00 | 46 | 1018.4 |
| 20260508144546 | 62 | 182 | 2.0 | 7.0 | 0.00 | 0.00 | 0.00 | 46 | 1018.5 |
| 20260508144042 | 61 | 242 | 3.0 | 7.0 | 0.00 | 0.00 | 0.00 | 49 | 1018.5 |
| 20260508143541 | 61 | 107 | 0.0 | 6.0 | 0.00 | 0.00 | 0.00 | 47 | 1018.4 |
| 20260508143038 | 60 | 107 | 1.0 | 6.0 | 0.00 | 0.00 | 0.00 | 47 | 1018.6 |
| 20260508142537 | 60 | 174 | 1.0 | 6.0 | 0.00 | 0.00 | 0.00 | 51 | 1018.7 |
| 20260508142036 | 60 | 199 | 2.0 | 9.0 | 0.00 | 0.00 | 0.00 | 49 | 1018.6 |
| 20260508141604 | 60 | 170 | 2.0 | 9.0 | 0.00 | 0.00 | 0.00 | 56 | 1018.6 |
| 20260508141034 | 60 | 248 | 2.0 | 5.0 | 0.00 | 0.00 | 0.00 | 55 | 1018.6 |
| 20260508140532 | 59 | 202 | 2.0 | 5.0 | 0.00 | 0.00 | 0.00 | 54 | 1018.6 |
| 20260508140032 | 59 | 184 | 1.0 | 3.0 | 0.00 | 0.00 | 0.00 | 58 | 1018.6 |
| 20260508135529 | 59 | 173 | 0.0 | 4.0 | 0.00 | 0.00 | 0.00 | 58 | 1018.6 |
| 20260508135028 | 58 | 173 | 1.0 | 6.0 | 0.00 | 0.00 | 0.00 | 61 | 1018.6 |
| 20260508134533 | 57 | 274 | 1.0 | 4.0 | 0.00 | 0.00 | 0.00 | 60 | 1018.7 |
| 20260508134024 | 57 | 157 | 0.0 | 4.0 | 0.00 | 0.00 | 0.00 | 61 | 1018.7 |
| 20260508133526 | 56 | 196 | 1.0 | 3.0 | 0.00 | 0.00 | 0.00 | 58 | 1018.6 |
| 20260508133022 | 56 | 208 | 0.0 | 3.0 | 0.00 | 0.00 | 0.00 | 64 | 1018.8 |
| 20260508132521 | 55 | 208 | 0.0 | 4.0 | 0.00 | 0.00 | 0.00 | 64 | 1018.7 |
| 20260508132022 | 54 | 213 | 1.0 | 4.0 | 0.00 | 0.00 | 0.00 | 64 | 1018.7 |
| 20260508131517 | 54 | 219 | 0.0 | 4.0 | 0.00 | 0.00 | 0.00 | 66 | 1018.7 |
| 20260508131016 | 53 | 239 | 1.0 | 4.0 | 0.00 | 0.00 | 0.00 | 67 | 1018.6 |
| 20260508130514 | 53 | 190 | 1.0 | 4.0 | 0.00 | 0.00 | 0.00 | 67 | 1018.6 |
| 20260508130013 | 52 | 174 | 1.0 | 4.0 | 0.00 | 0.00 | 0.00 | 66 | 1018.6 |
| 20260508125511 | 52 | 179 | 0.0 | 3.0 | 0.00 | 0.00 | 0.00 | 69 | 1018.5 |
| 20260508125014 | 51 | 179 | 1.0 | 3.0 | 0.00 | 0.00 | 0.00 | 72 | 1018.3 |
| 20260508124508 | 50 | 176 | 0.0 | 3.0 | 0.00 | 0.00 | 0.00 | 75 | 1018.3 |
| 20260508124007 | 49 | 176 | 1.0 | 3.0 | 0.00 | 0.00 | 0.00 | 75 | 1018.4 |
| 20260508123505 | 49 | 176 | 0.0 | 2.0 | 0.00 | 0.00 | 0.00 | 80 | 1018.4 |
| 20260508123004 | 48 | 176 | 1.0 | 3.0 | 0.00 | 0.00 | 0.00 | 86 | 1018.3 |
| 20260508122503 | 46 | 176 | 0.0 | 3.0 | 0.00 | 0.00 | 0.00 | 91 | 1018.3 |
| 20260508122001 | 45 | 175 | 0.0 | 2.0 | 0.00 | 0.00 | 0.00 | 94 | 1018.3 |
| 20260508121602 | 44 | 175 | 0.0 | 2.0 | 0.00 | 0.00 | 0.00 | 94 | 1018.2 |
| 20260508121058 | 43 | 5 | 0.0 | 0.0 | 0.00 | 0.00 | 0.00 | 95 | 1018.3 |
| 20260508120557 | 42 | 5 | 0.0 | 0.0 | 0.00 | 0.00 | 0.00 | 95 | 1018.1 |
| 20260508120058 | 41 | 5 | 0.0 | 0.0 | 0.00 | 0.00 | 0.00 | 95 | 1018.1 |
| 20260508115557 | 41 | 5 | 0.0 | 0.0 | 0.00 | 0.00 | 0.00 | 95 | 1018.1 |
| 20260508115056 | 40 | 5 | 0.0 | 0.0 | 0.00 | 0.00 | 0.00 | 95 | 1018.0 |
| 20260508114555 | 40 | 5 | 0.0 | 0.0 | 0.00 | 0.00 | 0.00 | 95 | 1017.9 |
| 20260508114054 | 39 | 5 | 0.0 | 0.0 | 0.00 | 0.00 | 0.00 | 95 | 1017.9 |
| 20260508113554 | 39 | 5 | 0.0 | 0.0 | 0.00 | 0.00 | 0.00 | 95 | 1017.7 |
| 20260508113105 | 38 | 5 | 0.0 | 0.0 | 0.00 | 0.00 | 0.00 | 95 | 1017.7 |
| 20260508112552 | 38 | 5 | 0.0 | 0.0 | 0.00 | 0.00 | 0.00 | 94 | 1017.6 |
| 20260508112051 | 38 | 5 | 0.0 | 0.0 | 0.00 | 0.00 | 0.00 | 94 | 1017.6 |
| 20260508111557 | 38 | 5 | 0.0 | 0.0 | 0.00 | 0.00 | 0.00 | 94 | 1017.5 |
| 20260508111054 | 38 | 5 | 0.0 | 0.0 | 0.00 | 0.00 | 0.00 | 94 | 1017.5 |
| 20260508110550 | 38 | 5 | 0.0 | 0.0 | 0.00 | 0.00 | 0.00 | 94 | 1017.4 |
| 20260508110054 | 38 | 5 | 0.0 | 0.0 | 0.00 | 0.00 | 0.00 | 94 | 1017.4 |
| 20260508105548 | 38 | 5 | 0.0 | 0.0 | 0.00 | 0.00 | 0.00 | 94 | 1017.3 |
| 20260508105047 | 38 | 5 | 0.0 | 0.0 | 0.00 | 0.00 | 0.00 | 94 | 1017.3 |
| 20260508104546 | 38 | 5 | 0.0 | 0.0 | 0.00 | 0.00 | 0.00 | 94 | 1017.3 |
| 20260508104045 | 39 | 5 | 0.0 | 0.0 | 0.00 | 0.00 | 0.00 | 94 | 1017.3 |
| 20260508103546 | 39 | 5 | 0.0 | 0.0 | 0.00 | 0.00 | 0.00 | 94 | 1017.3 |
| 20260508103045 | 39 | 5 | 0.0 | 0.0 | 0.00 | 0.00 | 0.00 | 95 | 1017.2 |
| 20260508102544 | 39 | 5 | 0.0 | 0.0 | 0.00 | 0.00 | 0.00 | 94 | 1017.1 |
| 20260508102044 | 39 | 5 | 0.0 | 0.0 | 0.00 | 0.00 | 0.00 | 94 | 1017.1 |
| 20260508101543 | 39 | 5 | 0.0 | 1.0 | 0.00 | 0.00 | 0.00 | 94 | 1017.0 |
| 20260508101043 | 39 | 5 | 0.0 | 1.0 | 0.00 | 0.00 | 0.00 | 94 | 1016.9 |
| 20260508100542 | 39 | 5 | 0.0 | 1.0 | 0.00 | 0.00 | 0.00 | 94 | 1016.9 |
| 20260508100042 | 39 | 5 | 0.0 | 0.0 | 0.00 | 0.00 | 0.00 | 94 | 1016.9 |
| 20260508095542 | 38 | 5 | 0.0 | 0.0 | 0.00 | 0.00 | 0.00 | 94 | 1016.9 |
| 20260508095042 | 38 | 5 | 0.0 | 0.0 | 0.00 | 0.00 | 0.00 | 94 | 1016.7 |
| 20260508094541 | 38 | 5 | 0.0 | 0.0 | 0.00 | 0.00 | 0.00 | 94 | 1016.7 |
| 20260508094040 | 39 | 5 | 0.0 | 0.0 | 0.00 | 0.00 | 0.00 | 94 | 1016.8 |
| 20260508093540 | 39 | 5 | 0.0 | 0.0 | 0.00 | 0.00 | 0.00 | 94 | 1016.6 |
| 20260508093046 | 39 | 5 | 0.0 | 0.0 | 0.00 | 0.00 | 0.00 | 94 | 1016.7 |
| 20260508092538 | 39 | 5 | 0.0 | 0.0 | 0.00 | 0.00 | 0.00 | 94 | 1016.6 |
| 20260508092038 | 39 | 5 | 0.0 | 0.0 | 0.00 | 0.00 | 0.00 | 94 | 1016.5 |
| 20260508091548 | 39 | 5 | 0.0 | 0.0 | 0.00 | 0.00 | 0.00 | 94 | 1016.5 |
| 20260508091040 | 39 | 5 | 0.0 | 0.0 | 0.00 | 0.00 | 0.00 | 94 | 1016.6 |
| 20260508090536 | 39 | 5 | 0.0 | 0.0 | 0.00 | 0.00 | 0.00 | 94 | 1016.6 |
| 20260508090040 | 39 | 5 | 0.0 | 0.0 | 0.00 | 0.00 | 0.00 | 94 | 1016.6 |
| 20260508085537 | 39 | 5 | 0.0 | 0.0 | 0.00 | 0.00 | 0.00 | 93 | 1016.5 |
| 20260508085035 | 40 | 5 | 0.0 | 0.0 | 0.00 | 0.00 | 0.00 | 93 | 1016.4 |
| 20260508084534 | 39 | 5 | 0.0 | 0.0 | 0.00 | 0.00 | 0.00 | 93 | 1016.4 |
| 20260508084034 | 40 | 5 | 0.0 | 0.0 | 0.00 | 0.00 | 0.00 | 93 | 1016.4 |
| 20260508083532 | 40 | 5 | 0.0 | 0.0 | 0.00 | 0.00 | 0.00 | 93 | 1016.6 |
| 20260508083032 | 40 | 5 | 0.0 | 0.0 | 0.00 | 0.00 | 0.00 | 93 | 1016.6 |
| 20260508082531 | 40 | 5 | 0.0 | 0.0 | 0.00 | 0.00 | 0.00 | 93 | 1016.5 |
| 20260508082031 | 40 | 5 | 0.0 | 0.0 | 0.00 | 0.00 | 0.00 | 93 | 1016.6 |
| 20260508081532 | 40 | 5 | 0.0 | 0.0 | 0.00 | 0.00 | 0.00 | 93 | 1016.6 |
| 20260508081031 | 41 | 5 | 0.0 | 0.0 | 0.00 | 0.00 | 0.00 | 93 | 1016.6 |
| 20260508080533 | 40 | 5 | 0.0 | 0.0 | 0.00 | 0.00 | 0.00 | 93 | 1016.6 |
| 20260508080037 | 41 | 5 | 0.0 | 0.0 | 0.00 | 0.00 | 0.00 | 93 | 1016.7 |
| 20260508075529 | 41 | 5 | 0.0 | 0.0 | 0.00 | 0.01 | 0.00 | 93 | 1016.6 |
| 20260508075029 | 41 | 5 | 0.0 | 0.0 | 0.00 | 0.01 | 0.00 | 93 | 1016.6 |
| 20260508074531 | 41 | 5 | 0.0 | 0.0 | 0.00 | 0.01 | 0.00 | 93 | 1016.4 |
| 20260508074027 | 41 | 5 | 0.0 | 0.0 | 0.00 | 0.01 | 0.00 | 93 | 1016.4 |
| 20260508073529 | 41 | 5 | 0.0 | 0.0 | 0.00 | 0.01 | 0.00 | 93 | 1016.5 |
| 20260508073026 | 41 | 5 | 0.0 | 0.0 | 0.00 | 0.01 | 0.00 | 92 | 1016.5 |
| 20260508072526 | 41 | 5 | 0.0 | 0.0 | 0.00 | 0.01 | 0.00 | 92 | 1016.5 |
| 20260508072025 | 41 | 5 | 0.0 | 0.0 | 0.00 | 0.01 | 0.00 | 92 | 1016.4 |
| 20260508071530 | 41 | 5 | 0.0 | 0.0 | 0.00 | 0.01 | 0.00 | 92 | 1016.5 |
| 20260508071024 | 41 | 5 | 0.0 | 0.0 | 0.00 | 0.01 | 0.00 | 92 | 1016.5 |
| 20260508070524 | 42 | 5 | 0.0 | 0.0 | 0.00 | 0.01 | 0.00 | 92 | 1016.5 |
| 20260508070023 | 42 | 5 | 0.0 | 0.0 | 0.00 | 0.01 | 0.00 | 92 | 1016.6 |
| 20260508065523 | 42 | 5 | 0.0 | 0.0 | 0.00 | 0.01 | 0.00 | 92 | 1016.6 |
| 20260508065022 | 42 | 5 | 0.0 | 0.0 | 0.00 | 0.01 | 0.00 | 92 | 1016.6 |
| 20260508064522 | 42 | 5 | 0.0 | 0.0 | 0.00 | 0.01 | 0.00 | 92 | 1016.7 |
| 20260508064021 | 42 | 5 | 0.0 | 0.0 | 0.00 | 0.01 | 0.00 | 92 | 1016.7 |
| 20260508063521 | 42 | 5 | 0.0 | 0.0 | 0.00 | 0.01 | 0.00 | 91 | 1016.6 |
| 20260508063020 | 42 | 5 | 0.0 | 0.0 | 0.00 | 0.01 | 0.00 | 91 | 1016.6 |
| 20260508062520 | 42 | 5 | 0.0 | 0.0 | 0.00 | 0.01 | 0.00 | 91 | 1016.7 |
| 20260508062019 | 42 | 5 | 0.0 | 0.0 | 0.00 | 0.01 | 0.00 | 91 | 1016.7 |
| 20260508061521 | 42 | 5 | 0.0 | 0.0 | 0.00 | 0.01 | 0.00 | 91 | 1016.9 |
| 20260508061020 | 42 | 5 | 0.0 | 0.0 | 0.00 | 0.01 | 0.00 | 91 | 1016.9 |
| 20260508060518 | 43 | 5 | 0.0 | 0.0 | 0.00 | 0.01 | 0.00 | 91 | 1016.9 |
| 20260508060018 | 43 | 5 | 0.0 | 0.0 | 0.00 | 0.01 | 0.00 | 90 | 1017.0 |
| 20260508055516 | 43 | 5 | 0.0 | 0.0 | 0.00 | 0.02 | 0.00 | 90 | 1017.0 |
| 20260508055017 | 43 | 5 | 0.0 | 0.0 | 0.00 | 0.02 | 0.00 | 90 | 1016.9 |
| 20260508054516 | 43 | 5 | 0.0 | 0.0 | 0.00 | 0.02 | 0.00 | 91 | 1016.9 |
| 20260508054016 | 43 | 5 | 0.0 | 0.0 | 0.00 | 0.02 | 0.00 | 91 | 1017.0 |
| 20260508053515 | 43 | 5 | 0.0 | 0.0 | 0.00 | 0.02 | 0.00 | 91 | 1016.9 |
| 20260508053015 | 43 | 5 | 0.0 | 0.0 | 0.00 | 0.02 | 0.00 | 91 | 1016.9 |
| 20260508052515 | 43 | 5 | 0.0 | 0.0 | 0.00 | 0.02 | 0.00 | 91 | 1016.8 |
| 20260508052015 | 43 | 5 | 0.0 | 0.0 | 0.00 | 0.02 | 0.00 | 91 | 1016.7 |
| 20260508051515 | 43 | 5 | 0.0 | 0.0 | 0.00 | 0.02 | 0.00 | 91 | 1016.8 |
| 20260508051013 | 43 | 5 | 0.0 | 0.0 | 0.00 | 0.02 | 0.00 | 91 | 1016.8 |
| 20260508050513 | 43 | 5 | 0.0 | 0.0 | 0.00 | 0.02 | 0.00 | 91 | 1016.8 |
| 20260508050012 | 43 | 5 | 0.0 | 0.0 | 0.00 | 0.02 | 0.00 | 91 | 1016.7 |
| 20260508045516 | 43 | 5 | 0.0 | 0.0 | 0.00 | 0.02 | 0.02 | 91 | 1016.8 |
| 20260508045010 | 43 | 5 | 0.0 | 0.0 | 0.00 | 0.02 | 0.02 | 91 | 1016.7 |
| 20260508044009 | 43 | 5 | 0.0 | 0.0 | 0.00 | 0.02 | 0.02 | 91 | 1016.9 |
| 20260508043514 | 43 | 5 | 0.0 | 0.0 | 0.00 | 0.02 | 0.02 | 91 | 1017.0 |
| 20260508043009 | 44 | 5 | 0.0 | 0.0 | 0.00 | 0.02 | 0.02 | 90 | 1017.1 |
| 20260508042511 | 44 | 5 | 0.0 | 0.0 | 0.00 | 0.02 | 0.02 | 90 | 1017.1 |
| 20260508042010 | 44 | 5 | 0.0 | 0.0 | 0.00 | 0.02 | 0.02 | 90 | 1017.1 |
| 20260508041507 | 44 | 5 | 0.0 | 0.0 | 0.00 | 0.02 | 0.02 | 90 | 1017.1 |
| 20260508041007 | 44 | 5 | 0.0 | 0.0 | 0.00 | 0.02 | 0.02 | 90 | 1017.0 |
| 20260508040509 | 44 | 5 | 0.0 | 0.0 | 0.00 | 0.02 | 0.02 | 90 | 1016.9 |
| 20260508040009 | 44 | 5 | 0.0 | 0.0 | 0.00 | 0.02 | 0.02 | 90 | 1016.7 |
| 20260508035505 | 44 | 5 | 0.0 | 0.0 | 0.00 | 0.02 | 0.02 | 90 | 1016.8 |
| 20260508035004 | 44 | 5 | 0.0 | 0.0 | 0.00 | 0.02 | 0.02 | 89 | 1016.7 |
| 20260508034506 | 45 | 5 | 0.0 | 0.0 | 0.00 | 0.02 | 0.02 | 89 | 1016.7 |
| 20260508034004 | 45 | 5 | 0.0 | 0.0 | 0.00 | 0.02 | 0.02 | 89 | 1016.7 |
| 20260508033505 | 45 | 5 | 0.0 | 0.0 | 0.00 | 0.02 | 0.02 | 89 | 1016.6 |
| 20260508033001 | 45 | 5 | 0.0 | 0.0 | 0.00 | 0.02 | 0.02 | 89 | 1016.6 |
| 20260508032501 | 45 | 5 | 0.0 | 0.0 | 0.00 | 0.02 | 0.02 | 89 | 1016.6 |
| 20260508032103 | 45 | 5 | 0.0 | 0.0 | 0.00 | 0.02 | 0.02 | 88 | 1016.6 |
| 20260508031600 | 46 | 5 | 0.0 | 0.0 | 0.00 | 0.02 | 0.02 | 88 | 1016.7 |
| 20260508031100 | 46 | 5 | 0.0 | 0.0 | 0.00 | 0.02 | 0.02 | 87 | 1016.8 |
| 20260508030559 | 46 | 5 | 0.0 | 0.0 | 0.00 | 0.02 | 0.02 | 87 | 1016.7 |
| 20260508030058 | 46 | 5 | 0.0 | 0.0 | 0.00 | 0.02 | 0.02 | 86 | 1016.8 |
| 20260508025557 | 46 | 5 | 0.0 | 0.0 | 0.00 | 0.04 | 0.02 | 86 | 1016.6 |
| 20260508025057 | 46 | 5 | 0.0 | 0.0 | 0.00 | 0.04 | 0.02 | 86 | 1016.6 |
| 20260508024559 | 46 | 5 | 0.0 | 0.0 | 0.00 | 0.04 | 0.02 | 86 | 1016.6 |
| 20260508024055 | 47 | 5 | 0.0 | 0.0 | 0.00 | 0.04 | 0.02 | 86 | 1016.4 |
| 20260508023554 | 47 | 5 | 0.0 | 0.0 | 0.00 | 0.04 | 0.02 | 85 | 1016.6 |
| 20260508023056 | 47 | 5 | 0.0 | 0.0 | 0.00 | 0.04 | 0.02 | 85 | 1016.5 |
| 20260508022554 | 47 | 5 | 0.0 | 0.0 | 0.00 | 0.04 | 0.02 | 84 | 1016.6 |
| 20260508022053 | 47 | 5 | 0.0 | 0.0 | 0.00 | 0.04 | 0.02 | 84 | 1016.5 |
| 20260508021553 | 47 | 5 | 0.0 | 0.0 | 0.00 | 0.04 | 0.02 | 83 | 1016.5 |
| 20260508021051 | 48 | 5 | 0.0 | 0.0 | 0.00 | 0.04 | 0.02 | 83 | 1016.4 |
| 20260508020554 | 48 | 5 | 0.0 | 0.0 | 0.00 | 0.04 | 0.02 | 82 | 1016.5 |
| 20260508020053 | 48 | 5 | 0.0 | 0.0 | 0.00 | 0.04 | 0.02 | 82 | 1016.4 |
| 20260508015550 | 48 | 5 | 0.0 | 0.0 | 0.00 | 0.04 | 0.02 | 82 | 1016.3 |
| 20260508015053 | 48 | 5 | 0.0 | 0.0 | 0.00 | 0.04 | 0.02 | 82 | 1016.2 |
| 20260508014547 | 49 | 5 | 0.0 | 0.0 | 0.00 | 0.04 | 0.02 | 82 | 1016.0 |
| 20260508014046 | 49 | 5 | 0.0 | 0.0 | 0.00 | 0.04 | 0.02 | 81 | 1015.9 |
| 20260508013548 | 49 | 5 | 0.0 | 0.0 | 0.00 | 0.04 | 0.02 | 82 | 1015.7 |
| 20260508013045 | 49 | 5 | 0.0 | 0.0 | 0.00 | 0.04 | 0.02 | 81 | 1015.4 |
| 20260508012543 | 50 | 5 | 0.0 | 0.0 | 0.00 | 0.04 | 0.02 | 80 | 1015.4 |
| 20260508012043 | 50 | 5 | 0.0 | 0.0 | 0.00 | 0.04 | 0.02 | 79 | 1015.6 |
| 20260508011543 | 50 | 5 | 0.0 | 0.0 | 0.00 | 0.04 | 0.02 | 77 | 1015.4 |
| 20260508011043 | 51 | 5 | 0.0 | 0.0 | 0.00 | 0.04 | 0.02 | 75 | 1015.5 |
| 20260508010543 | 51 | 5 | 0.0 | 0.0 | 0.00 | 0.04 | 0.02 | 74 | 1015.4 |
| 20260508010043 | 51 | 5 | 0.0 | 1.0 | 0.00 | 0.04 | 0.02 | 72 | 1015.3 |
| 20260508005542 | 52 | 5 | 0.0 | 1.0 | 0.00 | 0.04 | 0.02 | 71 | 1015.3 |
| 20260508005043 | 53 | 38 | 0.0 | 1.0 | 0.00 | 0.04 | 0.02 | 70 | 1015.1 |
| 20260508004545 | 53 | 5 | 0.0 | 1.0 | 0.00 | 0.04 | 0.02 | 68 | 1015.2 |
| 20260508004043 | 54 | 5 | 0.0 | 1.0 | 0.00 | 0.04 | 0.02 | 66 | 1015.1 |
| 20260508003542 | 54 | 5 | 0.0 | 1.0 | 0.00 | 0.04 | 0.02 | 65 | 1014.9 |
| 20260508003042 | 54 | 5 | 0.0 | 0.0 | 0.00 | 0.04 | 0.02 | 66 | 1014.9 |
| 20260508002542 | 55 | 5 | 0.0 | 0.0 | 0.00 | 0.04 | 0.02 | 66 | 1014.8 |
| 20260508002041 | 56 | 5 | 0.0 | 1.0 | 0.00 | 0.04 | 0.02 | 63 | 1014.8 |
| 20260508001541 | 56 | 5 | 0.0 | 1.0 | 0.00 | 0.04 | 0.02 | 62 | 1014.7 |
| 20260508001041 | 57 | 5 | 0.0 | 1.0 | 0.00 | 0.04 | 0.02 | 62 | 1014.7 |
| 20260508000542 | 57 | 5 | 0.0 | 2.0 | 0.00 | 0.04 | 0.02 | 60 | 1014.8 |
| 20260508000040 | 58 | 5 | 0.0 | 3.0 | 0.00 | 0.04 | 0.02 | 56 | 1014.7 |
| 20260507235541 | 59 | 338 | 0.0 | 4.0 | 0.00 | 0.07 | 0.02 | 54 | 1014.7 |
| 20260507235041 | 59 | 66 | 0.0 | 6.0 | 0.00 | 0.07 | 0.02 | 54 | 1014.7 |
| 20260507234540 | 59 | 296 | 1.0 | 7.0 | 0.00 | 0.07 | 0.02 | 56 | 1014.5 |
| 20260507234039 | 59 | 88 | 0.0 | 4.0 | 0.00 | 0.07 | 0.02 | 55 | 1014.4 |
| 20260507233542 | 60 | 77 | 1.0 | 4.0 | 0.00 | 0.07 | 0.02 | 55 | 1014.4 |
| 20260507233040 | 60 | 58 | 1.0 | 4.0 | 0.00 | 0.07 | 0.02 | 52 | 1014.5 |
| 20260507232539 | 61 | 72 | 1.0 | 3.0 | 0.00 | 0.07 | 0.02 | 56 | 1014.3 |
| 20260507232038 | 61 | 51 | 0.0 | 4.0 | 0.00 | 0.07 | 0.02 | 53 | 1014.2 |
| 20260507231545 | 61 | 65 | 0.0 | 4.0 | 0.00 | 0.07 | 0.02 | 50 | 1014.3 |
| 20260507231038 | 62 | 55 | 0.0 | 3.0 | 0.00 | 0.07 | 0.02 | 51 | 1014.3 |
| 20260507230539 | 62 | 71 | 1.0 | 9.0 | 0.00 | 0.07 | 0.02 | 50 | 1014.4 |
| 20260507230038 | 62 | 94 | 2.0 | 9.0 | 0.00 | 0.07 | 0.02 | 51 | 1014.3 |
| 20260507225538 | 62 | 71 | 0.0 | 5.0 | 0.00 | 0.07 | 0.02 | 50 | 1014.6 |
| 20260507225041 | 63 | 90 | 1.0 | 6.0 | 0.00 | 0.07 | 0.02 | 49 | 1014.6 |
| 20260507224538 | 63 | 286 | 2.0 | 6.0 | 0.00 | 0.07 | 0.02 | 49 | 1014.7 |
| 20260507224040 | 63 | 351 | 0.0 | 6.0 | 0.00 | 0.07 | 0.02 | 51 | 1014.7 |
| 20260507223540 | 63 | 57 | 1.0 | 5.0 | 0.00 | 0.07 | 0.02 | 50 | 1014.6 |
| 20260507223037 | 64 | 257 | 2.0 | 7.0 | 0.00 | 0.07 | 0.02 | 51 | 1014.6 |
| 20260507222537 | 64 | 261 | 2.0 | 7.0 | 0.00 | 0.07 | 0.02 | 50 | 1014.6 |
| 20260507222037 | 64 | 41 | 2.0 | 4.0 | 0.00 | 0.07 | 0.02 | 49 | 1014.7 |
| 20260507221536 | 64 | 262 | 1.0 | 4.0 | 0.00 | 0.07 | 0.02 | 49 | 1014.6 |
| 20260507221035 | 64 | 295 | 0.0 | 5.0 | 0.00 | 0.07 | 0.02 | 49 | 1014.6 |
| 20260507220535 | 64 | 289 | 2.0 | 5.0 | 0.00 | 0.07 | 0.02 | 49 | 1014.6 |
| 20260507220036 | 64 | 67 | 1.0 | 8.0 | 0.00 | 0.07 | 0.02 | 51 | 1014.5 |
| 20260507215536 | 64 | 289 | 3.0 | 8.0 | 0.00 | 0.07 | 0.02 | 49 | 1014.7 |
| 20260507215036 | 64 | 277 | 1.0 | 5.0 | 0.00 | 0.07 | 0.02 | 49 | 1014.6 |
| 20260507214543 | 64 | 355 | 1.0 | 5.0 | 0.00 | 0.07 | 0.02 | 49 | 1014.5 |